Location: Moy Burn
(57.3833°N, 4.0667°W)
Time: 12:38:41
(UTC+00:00)

NOSS 3-2 (A) - Pass Details

Date: 08 August 2020
Orbit: 796 x 1412 km, 63.4° (Epoch: 16 September)

Event Time Altitude Azimuth Distance (km) Brightness Sun altitude
Rises 23:15:33 0° 229° (SW) 3,441 6.1 -15.5°
Reaches altitude 10° 23:17:53 10° 228° (SW) 2,565 5.5 -15.6°
Maximum altitude 23:23:51 83° 142° (SE) 1,001 3.5 -15.8°
Drops below altitude 10° 23:30:52 10° 56° (NE) 2,987 6.3 -16.1°
Sets 23:33:46 0° 56° (NE) 4,044 7.0 -16.2°
